Home > Weather > Philipsburg > Past weeks

Flag for Sint Maarten Past Weather in Philipsburg, Sint Maarten — Yesterday and Last 2 Weeks

Now
81 °F

Passing clouds.


Feels Like: 86 °F
Forecast: 80 / 84 °F
Wind: 10 mph from Southeast

Location: Juliana Airport - Saint Maarten

Current Time: May 27, 2016 at 6:22:31 AM

Latest Report: May 27, 2016 at 6:00 AM


Visibility: N/A

Pressure: 29.95 "Hg

Humidity: 84%

Dew Point: 75 °F

Location of PhilipsburgLocation

Past Weather in Philipsburg — Graph

°F

Philipsburg Temperature Yesterday

Maximum temperature yesterday: 84 °F (at 11:00 AM)
Minimum temperature yesterday: 77 °F (at 1:00 AM)
Average temperature yesterday: 81 °F

High & Low Weather Summary for the Past Weeks

 TemperatureHumidityPressure
High86 °F (May 13, 4:00 PM)100% (May 12, 10:00 PM)30.12 "Hg (May 12, 10:00 PM)
Low77 °F (May 12, 9:00 PM)59% (May 13, 4:00 PM)29.86 "Hg (May 26, 4:00 PM)
Average82 °F77%30.05 "Hg
* Reported May 12 5:00 AM — May 27 5:00 AM, Philipsburg, Weather by CustomWeather, © 2016

Note: Actual official high and low records may vary slightly from our data, if they occured in-between our weather recording intervals... More about our weather records

Advertising

Philipsburg Weather History for the Previous 24 Hours

Scroll right to see more
 ConditionsComfort  
Time TempWeatherWind HumidityBarometerVisibility
5:00 AM
Fri, May 27
81 °FPassing clouds.10 mph79%29.95 "HgN/A
4:00 AM81 °FPassing clouds.8 mph84%29.95 "HgN/A
3:00 AM81 °FPassing clouds.8 mph84%29.92 "HgN/A
2:00 AM81 °FPassing clouds.9 mph84%29.95 "HgN/A
1:00 AM81 °FPassing clouds.12 mph84%29.95 "HgN/A
12:00 AM81 °FPassing clouds.10 mph84%29.98 "HgN/A
11:00 PM
Thu, May 26
81 °FPassing clouds.13 mph84%29.98 "HgN/A
10:00 PM81 °FPassing clouds.10 mph84%30.01 "HgN/A
9:00 PM81 °FPassing clouds.12 mph84%30.01 "HgN/A
8:00 PM81 °FPassing clouds.9 mph84%29.98 "HgN/A
7:03 PM81 °FPassing clouds.9 mph79%29.98 "HgN/A
6:00 PM82 °FScattered clouds.9 mph79%29.95 "HgN/A
5:00 PM82 °FScattered clouds.10 mph74%29.95 "HgN/A
4:00 PM84 °FPassing clouds.10 mph70%29.86 "HgN/A
3:00 PM84 °FPassing clouds.10 mph66%29.95 "HgN/A
2:00 PM84 °FPartly sunny.12 mph74%29.95 "HgN/A
1:00 PM84 °FPassing clouds.10 mph66%29.98 "HgN/A
12:00 PM82 °FScattered clouds.13 mph74%29.98 "HgN/A
11:00 AM84 °FScattered showers. Scattered clouds.12 mph74%30.01 "HgN/A
10:00 AM82 °FScattered clouds.10 mph74%30.01 "HgN/A
9:00 AM82 °FScattered clouds.9 mph74%30.01 "HgN/A
8:00 AM81 °FPassing clouds.7 mph79%30.01 "HgN/A
7:00 AM77 °FScattered showers. Scattered clouds.6 mph83%30.01 "HgN/A
6:00 AM79 °FScattered showers. Scattered clouds.3 mph84%30.01 "HgN/A
Weather by CustomWeather, © 2016

See weather overviewHow to use our weather pages